Voltar ao catálogo

FENGYUN 1C DEB

AtivoSSO
NORAD 30404·DEBRIS·🇨🇳 China

Lançado May 10, 1999 de Taiyuan Satellite Launch Center

Loading…

Próximas Passagens (próximas 24 horas)

TLE

AtualizadoSource: Space-Track

Época: Sep 13, 2026, 04:33 UTC

1 30404U 99025ADT 26256.18959553  .00001030  00000-0  14116-2 0  9991
2 30404  99.8267 342.7407 0382316 194.0765 164.9462 13.34724580616974

Acompanhe FENGYUN 1C DEB em tempo real com AllMySat

Download on the App Store